When you browse on this site, cookies collect data to enhance your experience and personalize the content and advertising you see.
Visit our Privacy Policy to learn more. By continuing to use the site, you agree to this use of cookies and data.
  • In Germany
  • List of Countries
  • For 7 days
  • Water Temperature
  • Satellite Maps
  • Weather Map
  • Weather Widgets
  • user-avatar
    Login

    Hourly Weather Krasnopartizanskiy

    Today, 20 November, Tuesday

    Time Temperature Precipitation Wind Pressure Humidity
    00:00 -2°C° 0 mm 4 mps 764 mmHg 73%
    01:00 -1°C° 0 mm 4 mps 764 mmHg 74%
    02:00 -1°C° 0 mm 4 mps 764 mmHg 74%
    03:00 -1°C° 0 mm 3 mps 763 mmHg 79%
    04:00 -1°C° 0 mm 3 mps 763 mmHg 79%
    05:00 -1°C° 0 mm 4 mps 763 mmHg 80%
    06:00 -1°C° 0 mm 4 mps 763 mmHg 81%
    07:00 -1°C° 0.2 mm 4 mps 763 mmHg 82%
    08:00 -1°C° 0.2 mm 4 mps 763 mmHg 83%
    09:00 0°C° 0 mm 5 mps 763 mmHg 83%
    10:00 0°C° 0.2 mm 5 mps 762 mmHg 84%
    11:00 0°C° 0.2 mm 4 mps 762 mmHg 84%
    12:00 +1°C° 0.2 mm 4 mps 762 mmHg 84%
    13:00 +1°C° 0.6 mm 4 mps 761 mmHg 86%
    14:00 +1°C° 0.6 mm 4 mps 761 mmHg 89%
    15:00 +1°C° 0 mm 4 mps 760 mmHg 92%
    16:00 0°C° 0.4 mm 4 mps 760 mmHg 93%
    17:00 0°C° 0.4 mm 4 mps 760 mmHg 93%
    18:00 0°C° 0.4 mm 5 mps 760 mmHg 94%
    19:00 0°C° 0.3 mm 4 mps 760 mmHg 94%
    20:00 0°C° 0.3 mm 4 mps 760 mmHg 95%
    21:00 +1°C° 0.3 mm 4 mps 760 mmHg 95%
    22:00 0°C° 0.4 mm 4 mps 760 mmHg 95%
    23:00 0°C° 0.4 mm 4 mps 760 mmHg 95%

    Tomorrow, 21 November, Wednesday

    Time Temperature Precipitation Wind Pressure Humidity
    00:00 0°C° 0.4 mm 4 mps 760 mmHg 95%
    01:00 0°C° 0 mm 4 mps 761 mmHg 93%
    02:00 0°C° 0 mm 4 mps 761 mmHg 92%
    03:00 -1°C° 0 mm 4 mps 761 mmHg 90%
    04:00 0°C° 0 mm 3 mps 761 mmHg 88%
    05:00 0°C° 0 mm 3 mps 762 mmHg 86%
    06:00 -1°C° 0 mm 3 mps 762 mmHg 84%
    07:00 -1°C° 0 mm 3 mps 762 mmHg 80%
    08:00 -1°C° 0 mm 3 mps 762 mmHg 75%
    09:00 -1°C° 0 mm 3 mps 763 mmHg 71%
    10:00 0°C° 0 mm 3 mps 762 mmHg 68%
    11:00 +2°C° 0 mm 2 mps 762 mmHg 66%
    12:00 +2°C° 0 mm 2 mps 762 mmHg 64%
    13:00 +2°C° 0 mm 2 mps 762 mmHg 65%
    14:00 +2°C° 0 mm 2 mps 762 mmHg 67%
    15:00 +3°C° 0 mm 2 mps 762 mmHg 68%
    16:00 +2°C° 0 mm 2 mps 762 mmHg 72%
    17:00 +1°C° 0 mm 2 mps 762 mmHg 75%
    18:00 -1°C° 0 mm 2 mps 762 mmHg 78%
    19:00 -2°C° 0 mm 2 mps 762 mmHg 79%
    20:00 -2°C° 0 mm 2 mps 761 mmHg 81%
    21:00 -2°C° 0 mm 2 mps 761 mmHg 82%
    22:00 -2°C° 0 mm 2 mps 761 mmHg 83%
    23:00 -3°C° 0 mm 2 mps 761 mmHg 84%

    Day after tomorrow, 22 November, Thursday

    Time Temperature Precipitation Wind Pressure Humidity
    00:00 -3°C° 0 mm 2 mps 761 mmHg 85%
    01:00 -3°C° 0 mm 2 mps 761 mmHg 86%
    02:00 -3°C° 0 mm 2 mps 761 mmHg 86%
    03:00 -3°C° 0 mm 2 mps 761 mmHg 87%
    04:00 -3°C° 0 mm 2 mps 761 mmHg 87%
    05:00 -3°C° 0 mm 2 mps 760 mmHg 88%
    06:00 -2°C° 0 mm 1 mps 760 mmHg 88%
    07:00 -3°C° 0 mm 2 mps 760 mmHg 85%
    08:00 -3°C° 0 mm 2 mps 760 mmHg 83%
    09:00 -2°C° 0 mm 2 mps 761 mmHg 81%
    10:00 -2°C° 0 mm 2 mps 760 mmHg 77%
    11:00 -1°C° 0 mm 2 mps 760 mmHg 73%
    12:00 +1°C° 0 mm 2 mps 760 mmHg 69%
    13:00 +1°C° 0 mm 2 mps 760 mmHg 70%
    14:00 0°C° 0 mm 3 mps 759 mmHg 71%
    15:00 0°C° 0 mm 3 mps 759 mmHg 71%
    16:00 -1°C° 0 mm 3 mps 759 mmHg 77%
    17:00 -2°C° 0 mm 3 mps 760 mmHg 82%
    18:00 -3°C° 0 mm 2 mps 760 mmHg 87%
    19:00 -3°C° 0 mm 2 mps 760 mmHg 88%
    20:00 -3°C° 0 mm 2 mps 760 mmHg 89%
    21:00 -4°C° 0 mm 2 mps 761 mmHg 90%
    22:00 -5°C° 0 mm 3 mps 761 mmHg 90%
    23:00 -5°C° 0 mm 3 mps 761 mmHg 89%

    23 November, Friday

    Time Temperature Precipitation Wind Pressure Humidity
    00:00 -5°C° 0 mm 3 mps 761 mmHg 88%
    01:00 -5°C° 0 mm 3 mps 760 mmHg 87%
    02:00 -5°C° 0 mm 3 mps 760 mmHg 85%
    03:00 -5°C° 0 mm 4 mps 760 mmHg 84%
    04:00 -5°C° 0 mm 4 mps 760 mmHg 83%
    05:00 -5°C° 0 mm 4 mps 760 mmHg 83%
    06:00 -6°C° 0 mm 5 mps 760 mmHg 82%
    07:00 -6°C° 0 mm 6 mps 761 mmHg 80%
    08:00 -5°C° 0 mm 6 mps 761 mmHg 78%
    09:00 -6°C° 0 mm 7 mps 761 mmHg 76%
    10:00 -4°C° 0 mm 7 mps 762 mmHg 75%
    11:00 -4°C° 0 mm 7 mps 762 mmHg 74%
    12:00 -3°C° 0 mm 7 mps 762 mmHg 73%
    13:00 -3°C° 0 mm 7 mps 763 mmHg 74%
    14:00 -3°C° 0 mm 6 mps 763 mmHg 75%
    15:00 -3°C° 0 mm 6 mps 764 mmHg 76%
    16:00 -4°C° 0 mm 5 mps 764 mmHg 78%
    17:00 -3°C° 0 mm 4 mps 765 mmHg 80%
    18:00 -3°C° 0 mm 4 mps 766 mmHg 83%
    19:00 -4°C° 0 mm 3 mps 767 mmHg 84%
    20:00 -4°C° 0 mm 3 mps 768 mmHg 86%
    21:00 -4°C° 0 mm 2 mps 769 mmHg 87%
    22:00 -4°C° 0 mm 2 mps 769 mmHg 85%
    23:00 -4°C° 0 mm 2 mps 770 mmHg 83%

    24 November, Saturday

    Time Temperature Precipitation Wind Pressure Humidity
    00:00 -2°C° 0 mm 1 mps 770 mmHg 80%
    01:00 -2°C° 0 mm 1 mps 770 mmHg 78%
    02:00 -2°C° 0 mm 1 mps 770 mmHg 76%
    03:00 -4°C° 0 mm 0 mps 770 mmHg 74%
    04:00 -4°C° 0 mm 0 mps 771 mmHg 73%
    05:00 -3°C° 0 mm 1 mps 771 mmHg 72%
    06:00 -3°C° 0 mm 1 mps 771 mmHg 71%
    07:00 -2°C° 0 mm 1 mps 771 mmHg 69%
    08:00 -2°C° 0 mm 1 mps 771 mmHg 68%
    09:00 -3°C° 0 mm 2 mps 772 mmHg 66%
    10:00 -2°C° 0 mm 2 mps 771 mmHg 61%
    11:00 -1°C° 0 mm 2 mps 771 mmHg 57%
    12:00 +1°C° 0 mm 2 mps 771 mmHg 53%
    13:00 0°C° 0 mm 3 mps 771 mmHg 53%
    14:00 0°C° 0 mm 3 mps 770 mmHg 54%
    15:00 0°C° 0 mm 3 mps 770 mmHg 55%
    16:00 -1°C° 0 mm 3 mps 770 mmHg 59%
    17:00 -2°C° 0 mm 3 mps 770 mmHg 62%
    18:00 -4°C° 0 mm 3 mps 769 mmHg 65%
    19:00 -4°C° 0 mm 4 mps 769 mmHg 66%
    20:00 -4°C° 0 mm 4 mps 769 mmHg 66%
    21:00 -4°C° 0 mm 4 mps 769 mmHg 67%
    22:00 -4°C° 0 mm 4 mps 769 mmHg 66%
    23:00 -4°C° 0 mm 4 mps 768 mmHg 66%

    25 November, Sunday

    Time Temperature Precipitation Wind Pressure Humidity
    00:00 -4°C° 0 mm 4 mps 768 mmHg 65%
    01:00 -4°C° 0 mm 4 mps 767 mmHg 66%
    02:00 -4°C° 0 mm 3 mps 767 mmHg 68%
    03:00 -4°C° 0 mm 3 mps 767 mmHg 69%
    04:00 -4°C° 0 mm 3 mps 766 mmHg 73%
    05:00 -4°C° 0 mm 3 mps 766 mmHg 77%
    06:00 -4°C° 0 mm 3 mps 766 mmHg 81%
    07:00 -3°C° 0 mm 4 mps 765 mmHg 82%
    08:00 -3°C° 0 mm 4 mps 765 mmHg 83%
    09:00 -2°C° 0 mm 4 mps 765 mmHg 85%
    10:00 0°C° 0 mm 4 mps 764 mmHg 83%
    11:00 +1°C° 0 mm 4 mps 764 mmHg 82%
    12:00 +3°C° 0 mm 4 mps 763 mmHg 80%
    13:00 +3°C° 0 mm 3 mps 763 mmHg 82%
    14:00 +3°C° 0 mm 3 mps 763 mmHg 84%
    15:00 +3°C° 0 mm 3 mps 762 mmHg 86%
    16:00 +3°C° 0 mm 3 mps 762 mmHg 88%
    17:00 +2°C° 0 mm 3 mps 762 mmHg 90%
    18:00 +1°C° 0 mm 3 mps 762 mmHg 92%
    19:00 +1°C° 0 mm 3 mps 762 mmHg 93%
    20:00 +1°C° 0 mm 3 mps 762 mmHg 93%
    21:00 +1°C° 0 mm 3 mps 761 mmHg 93%
    22:00 +2°C° 0 mm 2 mps 761 mmHg 93%
    23:00 +1°C° 0 mm 2 mps 761 mmHg 93%
    Show more